Location: Erdweis
(48.5167°N, 15.3500°E)
Time: 16:48:50
(UTC+00:00)

Cosmos 1125 Rocket - Pass Details

Date: 18 September 2020
Orbit: 758 x 779 km, 74.0° (Epoch: 29 October)

Event Time Altitude Azimuth Distance (km) Brightness Sun altitude
Rises 18:57:18 0° 186° (S) 3,243 6.6 -18.9°
Reaches altitude 10° 18:59:43 10° 181° (S) 2,322 5.8 -19.3°
Maximum altitude 19:04:49 53° 106° (ESE) 961 3.6 -20.0°
Drops below altitude 10° 19:09:59 10° 31° (NNE) 2,343 6.0 -20.8°
Sets 19:12:25 0° 27° (NNE) 3,275 6.8 -21.1°
